Theta_e
313 313 313 313 313 313 313 313 313 313 314 314 314 315 316 316 315 308 301 308 313 323 324 305 299 299 302 298 299 300 291 289 293 296 299 302 300 304 307 305 309 313 313 315 315
312 312 313 312 313 312 312 312 312 313 313 313 314 314 315 315 306 304 312 322 326 329 305 299 295 296 293 296 297 295 289 291 297 299 298 300 300 303 302 303 303 309 315 315 314
312 312 312 312 312 312 312 312 312 313 312 313 313 314 314 313 303 309 327 326 331 328 304 304 305 302 290 292 295 292 291 295 298 300 301 300 300 303 302 301 304 305 309 313 312
312 312 312 312 312 312 312 312 312 312 312 313 313 314 315 307 294 304 332 329 330 312 304 307 304 292 289 290 292 289 295 296 298 300 299 299 302 301 301 303 306 310 311 312 311
311 311 312 311 312 311 312 312 311 311 312 312 313 314 306 296 300 311 333 330 316 308 307 306 300 296 291 290 292 289 292 295 297 296 297 300 299 300 301 304 307 308 309 309 312
312 311 311 311 311 311 311 311 312 311 313 313 313 314 303 288 299 314 316 315 308 305 307 305 302 299 293 292 291 294 294 294 295 296 294 295 296 296 299 303 304 305 305 305 306
312 311 311 311 311 311 311 311 313 313 313 313 314 312 302 292 307 316 311 305 305 308 306 307 304 298 295 293 294 294 290 293 293 294 294 295 293 294 299 301 301 302 303 304 306
313 311 311 312 311 311 312 313 313 314 314 314 315 306 296 306 308 306 309 307 308 308 307 307 302 297 293 294 293 290 287 284 291 294 296 295 289 297 300 298 298 300 300 303 304
313 312 311 311 312 312 312 313 314 315 316 317 304 300 296 314 310 310 308 305 308 308 306 309 299 294 294 288 285 286 282 284 289 294 294 293 289 296 298 297 297 298 299 301 302
314 312 312 311 311 311 312 313 313 313 315 313 310 298 303 305 310 310 307 308 305 303 300 298 293 289 287 285 280 283 284 286 287 292 292 291 290 294 297 296 296 296 297 298 300
313 313 312 312 311 311 307 304 301 300 304 301 300 300 304 312 311 303 305 305 303 298 291 293 288 285 288 289 291 290 287 287 291 294 291 290 290 292 295 294 295 296 296 296 298
313 312 312 312 311 310 303 299 304 302 297 305 306 304 307 310 305 309 305 298 296 291 292 289 286 292 293 293 291 289 287 287 291 293 290 290 290 292 294 294 295 296 296 296 297
312 312 312 311 310 305 302 304 309 305 296 299 305 304 305 307 303 305 303 299 295 291 291 287 291 296 294 292 291 290 287 288 288 292 291 289 287 290 294 295 297 297 298 298 298
311 311 312 310 305 305 303 310 309 304 289 295 299 304 306 306 299 310 306 301 294 291 291 289 295 293 292 291 291 286 292 292 291 287 283 289 282 286 290 292 294 296 296 296 297
311 312 311 309 299 301 308 309 306 305 283 301 299 307 305 301 300 301 305 300 294 293 292 290 291 291 290 292 293 290 294 292 291 286 282 284 281 284 289 289 292 294 295 296 297
311 311 309 305 303 305 310 307 305 293 283 299 299 298 296 298 298 300 300 301 299 293 292 292 295 294 293 295 294 295 291 289 285 282 278 284 283 283 286 290 291 294 297 300 299
310 311 307 305 298 304 306 304 292 287 299 296 296 298 296 295 295 296 295 292 290 285 285 291 291 295 296 291 293 291 285 278 278 277 279 286 284 284 290 294 295 295 298 299 298
309 307 306 305 303 304 306 297 286 293 295 301 297 296 293 295 295 296 293 289 293 290 286 284 284 294 298 294 289 287 286 281 276 276 281 287 282 287 294 297 298 298 297 298 297
306 302 300 306 306 304 300 289 288 296 299 297 297 291 291 294 293 293 291 291 293 292 286 285 286 296 297 298 295 289 286 289 283 284 277 282 287 292 294 295 297 297 299 297 298
300 297 300 308 305 305 295 289 295 300 300 299 290 293 288 290 290 290 290 295 295 296 293 289 283 293 296 297 297 293 294 284 283 278 277 281 282 284 289 291 294 295 295 297 299
295 294 302 309 309 300 290 293 297 302 301 297 293 291 291 290 290 290 291 295 297 296 295 290 287 287 292 291 289 289 288 288 287 285 280 278 279 289 289 290 291 293 296 297 299
294 291 302 306 296 295 292 297 299 299 301 299 298 294 291 292 289 290 291 294 297 296 290 291 287 283 287 293 294 291 289 287 278 278 285 281 280 292 291 292 293 293 295 298 300
291 291 302 304 290 289 294 295 298 298 298 297 295 296 295 291 287 292 294 298 296 294 292 291 284 279 282 286 289 287 289 288 286 285 280 274 280 291 292 292 294 293 296 297 299
292 288 295 296 295 290 290 292 293 301 299 298 296 296 293 290 293 289 291 296 297 295 300 295 287 284 281 284 286 286 288 288 284 275 279 281 283 288 290 293 295 295 298 299 301
297 293 294 286 292 291 294 292 291 292 298 297 294 294 292 286 289 289 292 292 295 297 292 289 284 286 287 288 289 288 287 287 283 284 279 283 283 287 292 294 295 297 298 300 301
295 294 296 293 294 290 291 291 291 294 293 291 291 293 293 289 290 288 290 288 288 292 287 285 280 282 282 285 286 285 287 286 286 286 285 286 287 296 297 297 296 297 298 299 300
299 300 295 293 292 291 291 292 293 294 295 295 294 292 291 293 295 294 291 291 291 289 286 283 280 279 278 284 285 280 284 286 288 291 290 285 289 292 293 296 296 295 296 298 299
Wind_Speed
15 14 13 13 13 12 12 12 12 12 13 13 13 13 13 13 14 2 7 11 7 10 2 3 2 1 3 1 3 4 3 4 6 6 11 5 5 1 3 5 10 4 5 9 10
14 14 13 13 13 13 13 12 12 12 12 12 12 12 12 13 3 7 12 9 13 3 1 0 2 3 2 2 2 5 4 8 5 5 9 7 3 12 6 14 8 7 6 8 4
15 14 14 13 13 12 12 12 12 12 11 11 11 12 12 9 4 6 5 13 11 8 1 2 1 2 1 1 3 3 5 4 5 8 9 9 6 5 6 13 8 12 4 4 4
15 14 13 13 13 13 13 12 12 11 10 11 10 11 13 0 2 3 4 14 8 6 2 3 2 4 2 5 4 2 6 6 7 7 6 8 9 10 7 14 11 13 4 10 7
16 15 14 12 12 12 12 12 11 11 10 10 9 8 3 2 10 4 9 9 6 5 4 4 2 4 3 4 1 5 4 5 9 9 9 10 15 16 20 10 12 14 11 5 7
16 16 15 14 12 11 12 11 11 10 10 9 7 6 0 3 5 4 8 6 4 3 3 4 4 6 2 2 2 4 4 6 6 8 5 6 11 3 2 7 9 8 10 10 6
17 16 16 14 13 12 11 11 9 9 8 6 5 3 1 14 2 3 7 5 3 5 5 5 4 1 3 5 2 3 4 7 3 4 5 4 10 9 6 5 10 11 11 10 12
17 17 16 15 13 13 13 13 11 9 7 5 4 2 8 5 3 3 5 5 5 5 4 6 4 3 3 1 7 5 3 3 5 2 7 8 8 9 12 7 11 9 10 10 12
19 17 17 15 13 13 14 14 13 9 5 6 3 2 10 4 3 7 7 7 1 4 7 8 2 1 6 4 5 5 3 4 8 5 3 6 7 6 7 4 11 13 10 9 9
19 18 17 15 13 13 14 14 1 3 3 5 4 3 6 3 4 6 7 10 3 5 3 3 5 2 3 4 4 3 3 4 5 6 4 8 9 8 10 6 9 10 10 7 9
22 19 17 16 15 11 7 2 3 0 2 9 7 5 6 5 1 4 7 7 4 3 4 0 2 7 11 9 8 5 4 9 13 15 4 9 8 10 8 6 9 9 9 8 8
24 22 19 17 14 10 1 0 4 1 10 15 18 12 12 4 5 6 6 6 6 7 3 4 7 11 6 6 7 8 10 14 12 13 6 10 11 9 6 6 5 7 9 9 7
24 23 19 17 18 3 3 6 1 3 2 7 6 6 6 10 8 9 9 6 5 5 6 8 12 3 5 7 6 8 5 8 12 6 5 5 7 5 5 4 7 6 7 7 10
25 23 20 21 1 1 4 2 3 4 4 7 5 6 6 5 6 12 11 8 3 11 5 6 13 9 10 7 7 7 8 10 7 4 9 5 17 6 6 8 6 10 9 11 11
25 24 18 6 4 2 3 5 5 3 4 2 2 3 6 8 2 3 4 3 10 8 8 12 6 7 5 11 6 10 8 8 8 6 1 3 7 2 5 6 12 9 9 11 10
27 24 11 1 2 7 7 6 3 5 6 2 5 6 5 3 3 2 5 3 4 5 5 12 1 7 9 9 4 7 3 5 5 2 3 7 9 4 5 8 7 6 9 10 10
29 26 6 2 4 3 5 3 2 4 5 4 4 0 4 5 5 2 4 5 8 3 6 8 6 5 4 4 3 5 6 5 5 3 8 4 5 7 6 10 9 9 11 13 11
30 30 8 5 3 3 1 3 4 2 4 3 3 3 2 3 2 1 1 2 3 2 2 4 9 5 3 5 5 5 8 5 7 6 14 3 8 6 3 7 9 4 6 6 13
26 4 3 4 7 1 4 2 5 1 3 7 8 2 2 2 2 1 3 4 3 3 1 2 5 3 3 1 5 3 4 3 4 2 3 5 6 8 3 4 7 9 8 9 8
8 5 5 1 6 4 4 4 3 3 6 8 4 2 3 3 2 4 2 0 2 3 4 3 3 7 6 5 3 4 3 2 3 4 7 5 5 7 6 8 13 14 11 9 8
4 5 4 3 1 5 2 5 5 4 9 7 3 4 4 4 4 4 4 5 4 4 4 6 6 5 2 5 6 2 1 3 3 4 3 5 5 6 6 11 11 10 7 11 10
3 3 4 4 3 1 1 3 9 8 13 9 7 3 2 4 3 5 6 3 7 3 4 4 3 4 8 4 4 2 4 5 5 4 3 3 12 8 12 10 7 9 13 20 15
4 4 6 3 1 3 6 7 8 5 4 10 8 5 2 2 2 3 3 2 2 3 2 2 2 3 8 5 4 2 2 2 2 2 6 4 11 3 8 8 8 9 15 16 14
3 5 5 5 3 4 5 5 10 10 3 7 10 4 9 4 2 5 7 5 4 1 2 2 4 7 10 7 4 4 8 6 6 3 5 12 21 15 12 6 9 8 11 14 13
3 3 1 5 3 7 3 5 10 8 1 3 5 5 6 6 11 4 4 14 8 6 2 5 5 6 5 4 6 11 12 10 9 11 8 16 12 8 5 7 7 8 10 12 10
2 4 4 5 6 4 1 3 6 7 4 7 2 9 6 5 10 18 14 4 6 3 6 1 4 2 8 11 12 13 12 9 10 14 14 14 7 2 5 6 10 15 13 12 9
1 1 0 3 4 4 3 4 3 12 7 9 6 9 10 13 12 12 12 14 12 9 6 5 4 2 5 3 4 6 5 6 3 1 3 4 2 3 6 8 9 14 18 13 7
Wind_Direction
332 328 323 321 319 318 322 323 321 320 320 320 319 320 324 322 316 236 234 218 183 235 319 322 315 192 107 164 207 125 90 222 217 200 261 315 342 333 279 255 321 272 209 160 174
332 327 323 322 319 319 318 318 317 319 320 319 319 322 326 327 276 232 242 216 211 134 144 51 338 110 43 208 216 140 152 226 208 227 266 290 260 306 316 301 289 311 4 116 160
333 329 325 323 321 317 314 314 314 314 317 315 317 322 323 330 307 254 197 203 201 175 259 140 120 99 158 142 218 178 206 219 233 235 245 271 283 258 280 288 262 278 195 225 175
336 331 327 323 317 313 310 310 310 314 312 312 315 317 316 292 141 312 101 171 162 149 180 168 122 118 195 191 232 215 249 227 268 249 262 258 265 266 214 253 263 276 206 203 196
342 335 328 321 315 310 308 306 307 308 306 305 303 311 345 0 253 289 130 144 132 157 208 170 136 156 212 210 193 208 257 274 264 270 252 263 263 257 264 248 255 271 296 190 204
339 338 333 325 318 311 306 301 299 298 301 300 292 308 226 277 239 207 142 136 176 191 155 159 197 205 204 257 160 205 258 262 261 267 236 228 261 211 1 234 257 258 268 280 198
341 338 334 331 322 312 304 299 291 288 292 280 263 251 245 235 62 111 160 193 193 190 192 210 192 95 140 317 194 261 295 325 236 235 249 198 289 253 254 203 228 239 243 253 263
340 339 336 331 326 315 304 298 292 286 286 248 214 243 251 250 279 198 160 287 235 223 264 255 233 160 187 264 1 354 61 321 264 257 253 166 257 298 291 300 281 242 232 245 253
339 338 337 332 327 318 304 296 292 281 251 155 150 192 267 310 220 218 166 223 36 242 231 262 109 134 29 72 1 359 256 261 310 220 258 198 276 254 299 282 295 287 267 226 242
338 337 334 332 327 320 307 296 144 123 159 187 255 337 272 217 211 185 193 215 226 283 20 122 51 75 43 84 236 244 273 290 261 276 207 266 260 274 283 311 288 300 287 252 230
336 336 334 329 324 325 344 87 30 46 225 209 200 251 288 279 253 193 164 139 201 194 182 42 98 225 231 205 230 261 237 256 272 274 245 253 272 271 278 305 303 302 295 281 288
331 330 330 324 321 312 125 166 224 172 297 227 241 231 254 32 333 306 121 155 137 213 124 21 244 245 228 223 221 242 253 270 281 265 208 265 270 260 252 249 244 285 308 292 291
328 321 319 321 323 154 181 236 137 273 264 293 199 212 221 157 214 249 163 169 174 189 203 188 244 222 206 270 255 253 217 255 242 273 281 288 281 281 277 268 274 270 253 268 247
325 321 318 323 118 263 260 224 326 182 30 276 222 255 138 178 251 200 183 150 182 207 198 227 254 239 262 235 198 260 220 233 251 247 263 170 281 241 245 269 253 269 275 261 267
325 323 315 293 312 213 244 337 326 65 338 171 180 139 149 164 242 220 133 95 195 200 129 235 215 215 240 247 214 237 278 254 254 236 64 304 282 295 182 267 276 266 265 271 268
325 325 334 95 177 253 316 316 74 46 256 347 142 160 126 281 293 21 167 103 192 205 232 240 228 165 222 264 205 254 344 355 36 87 247 232 225 235 210 233 271 276 280 272 274
322 318 304 184 226 342 297 45 65 175 308 14 11 259 189 203 251 246 206 183 207 192 233 256 245 240 205 292 323 81 58 324 326 335 264 12 311 253 252 265 256 273 295 299 288
322 313 209 218 228 313 11 70 210 199 271 53 334 303 238 29 65 337 18 355 339 121 78 198 290 187 169 196 202 239 163 183 258 248 271 309 246 245 258 295 289 322 263 306 312
318 326 271 260 193 186 81 158 218 239 17 338 316 288 278 156 208 88 213 219 158 84 147 311 269 293 310 210 130 250 208 231 280 359 349 225 297 312 313 328 336 317 338 333 339
325 332 292 357 161 71 78 257 265 323 332 326 260 270 258 309 88 36 295 99 342 116 136 246 269 253 246 258 239 201 162 349 333 290 250 243 237 237 302 311 314 316 326 314 319
28 359 274 43 55 56 167 251 290 5 19 326 323 278 237 226 180 192 236 305 69 324 188 197 173 256 236 219 221 182 129 86 136 172 273 299 245 212 262 289 282 283 294 317 290
18 360 309 356 49 63 208 251 321 30 352 3 324 348 336 354 292 222 221 189 24 8 349 297 169 216 232 269 302 181 182 144 136 221 231 277 268 245 267 285 310 295 315 307 292
357 285 308 29 74 352 344 321 309 359 7 340 311 337 342 237 307 251 312 5 73 94 140 291 306 351 329 344 355 93 202 157 98 73 204 209 270 292 289 299 310 320 313 309 308
25 355 331 24 40 47 17 312 345 349 332 341 315 358 358 333 264 297 298 296 10 176 142 193 193 200 248 230 188 267 273 236 165 147 239 233 278 290 292 336 323 320 312 308 298
26 34 53 332 347 334 27 319 315 333 151 32 306 20 333 293 313 259 315 302 278 266 153 157 218 212 241 245 250 249 246 245 216 234 209 280 261 312 330 303 310 303 303 307 331
35 0 3 295 284 317 132 222 249 285 309 306 243 315 311 265 283 294 292 215 241 254 172 66 243 215 263 261 239 253 251 240 246 261 260 262 261 349 303 357 331 318 312 308 315
343 61 191 287 296 283 230 237 269 324 283 241 326 312 297 283 271 270 252 255 245 237 189 164 162 117 266 316 314 276 259 239 270 44 279 244 274 327 325 332 317 311 299 293 316